Location: Ferintosh
(52.7647°N, 112.9692°W)
Time: 23:41:31
(UTC+00:00)

Vanguard 1 Rocket - Pass Details

Date: 19 May 2024
Orbit: 649 x 4221 km, 34.3° (Epoch: 13 June)

Event Time Altitude Azimuth Distance (km) Brightness Sun altitude
Rises 17:24:53 0° 224° (SW) 7,705 12.1 49.5°
Reaches altitude 10° 17:32:00 10° 214° (SW) 6,106 11.8 50.3°
Maximum altitude 17:44:19 25° 169° (S) 3,713 11.6 51.5°
Drops below altitude 10° 17:52:13 10° 119° (ESE) 3,797 11.3 52.3°
Sets 17:55:21 0° 106° (ESE) 4,369 11.3 52.6°
